Defuniak Springs, Defuniak Sp, FL

12:10 AM CDT on June 25, 2017 (GMT -0500)
Defuniak Springs, Defuniak Sp

Weather History for K54J - August, 2014

Change the Weather History Date:

Saturday, August 16, 2014

  Actual Average (KCEW) Record (KCEW)
Temperature  
Mean Temperature 79 °F -  
Max Temperature 92 °F 92 °F 100 °F (1990)
Min Temperature 66 °F 70 °F 61 °F (2011)
Cooling Degree Days 14    
Growing Degree Days 29 (Base 50)    
Moisture  
Dew Point 69 °F    
Average Humidity 76    
Maximum Humidity 96    
Minimum Humidity 41    
Precipitation  
Precipitation 0.12 in - - ()
Sea Level Pressure  
Sea Level Pressure 30.04 in    
Wind  
Wind Speed 3 mph (WSW)    
Max Wind Speed 13 mph    
Max Gust Speed 18 mph    
Visibility 10 miles    
Events Rain    
Averages and records for this station are not official NWS values.
T = Trace of Precipitation, MM = Missing Value Source: NWS Daily Summary

Daily Weather History Graph

Daily Weather History Graph

Search for Another Location

Airport or City:

Trip Planner

Search our weather history database for the weather conditions in past years. The results will help you decide how hot, cold, wet, or windy it might be!

Date:

Astronomy

Aug. 16, 2014 Rise Set
Actual Time 6:11 AM CDT 7:25 PM CDT
Civil Twilight 5:46 AM CDT 7:50 PM CDT
Nautical Twilight 5:16 AM CDT 8:20 PM CDT
Astronomical Twilight 4:44 AM CDT 8:52 PM CDT
Moon 11:39 PM CDT (8/16) 12:27 PM CDT (8/16)
Length of Visible Light 14h 04m
Length of Day
13h 14m
Waning Gibbous, 58% of the Moon is Illuminated
Aug 16
Waning Gibbous
Aug 17
Last Quarter
Aug 25
New
Sep 2
First Quarter
Sep 8
Full

Hourly Weather History & Observations

Time (CDT) Temp. Heat Index Dew Point Humidity Pressure Visibility Wind Dir Wind Speed Gust Speed Precip Events Conditions
12:15 AM 71.6 °F - 68.2 °F 89% 30.00 in 10.0 mi Calm Calm - N/A   Clear
12:35 AM 72.5 °F - 68.2 °F 86% 30.00 in 10.0 mi SSW 3.5 mph - N/A   Clear
12:55 AM 72.5 °F - 68.2 °F 86% 30.00 in 10.0 mi Calm Calm - N/A   Clear
1:15 AM 71.1 °F - 68.2 °F 91% 30.00 in 10.0 mi South 3.5 mph - N/A   Clear
1:35 AM 70.3 °F - 67.8 °F 92% 30.00 in 10.0 mi SSW 3.5 mph - N/A   Clear
1:55 AM 70.9 °F - 68.0 °F 91% 30.00 in 10.0 mi Calm Calm - N/A   Clear
2:15 AM 71.6 °F - 68.0 °F 88% 30.00 in 10.0 mi Calm Calm - N/A   Clear
2:35 AM 71.8 °F - 68.0 °F 88% 30.00 in 10.0 mi Calm Calm - N/A   Clear
2:55 AM 71.6 °F - 68.0 °F 88% 29.99 in 10.0 mi Calm Calm - N/A   Clear
3:15 AM 70.7 °F - 67.6 °F 90% 29.99 in 10.0 mi Calm Calm - N/A   Clear
3:35 AM 71.1 °F - 67.6 °F 89% 29.99 in 10.0 mi Calm Calm - N/A   Scattered Clouds
3:55 AM 70.7 °F - 67.5 °F 89% 30.00 in 10.0 mi WSW 3.5 mph - N/A   Scattered Clouds
4:10 AM 69.8 °F - 67.3 °F 92% 30.00 in 10.0 mi Calm Calm - N/A   Mostly Cloudy
4:35 AM 69.1 °F - 67.3 °F 94% 30.00 in 10.0 mi Calm Calm - N/A   Scattered Clouds
4:55 AM 67.8 °F - 66.7 °F 96% 30.01 in 7.0 mi SW 3.5 mph - N/A   Clear
5:15 AM 68.7 °F - 66.7 °F 93% 30.02 in 10.0 mi WSW 3.5 mph - N/A   Clear
5:35 AM 68.5 °F - 66.7 °F 94% 30.02 in 10.0 mi Calm Calm - N/A   Scattered Clouds
5:55 AM 66.9 °F - 65.8 °F 96% 30.03 in 7.0 mi WSW 3.5 mph - N/A   Scattered Clouds
6:15 AM 70.0 °F - 67.1 °F 91% 30.03 in 10.0 mi West 3.5 mph - N/A   Clear
6:35 AM 68.4 °F - 66.7 °F 95% 30.04 in 10.0 mi Calm Calm - N/A   Clear
6:55 AM 70.3 °F - 67.3 °F 90% 30.04 in 10.0 mi WNW 3.5 mph - N/A   Clear
7:15 AM 73.0 °F - 67.8 °F 84% 30.04 in 10.0 mi NW 5.8 mph - N/A   Clear
7:35 AM 74.3 °F - 67.8 °F 80% 30.05 in 10.0 mi NW 5.8 mph - N/A   Clear
7:55 AM 77.0 °F - 67.3 °F 72% 30.05 in 10.0 mi NW 4.6 mph - N/A   Clear
8:15 AM 77.9 °F - 67.5 °F 70% 30.06 in 10.0 mi NW 5.8 mph - N/A   Clear
8:35 AM 79.3 °F - 67.8 °F 68% 30.06 in 10.0 mi NW 4.6 mph - N/A   Clear
8:55 AM 81.0 °F 83.4 °F 67.5 °F 63% 30.07 in 10.0 mi NW 8.1 mph - N/A   Clear
9:15 AM 82.0 °F 84.7 °F 67.3 °F 61% 30.07 in 10.0 mi WNW 6.9 mph - N/A   Clear
9:35 AM 83.5 °F 86.2 °F 67.3 °F 58% 30.08 in 10.0 mi WNW 4.6 mph - N/A   Clear
9:55 AM 85.3 °F 88.2 °F 67.3 °F 55% 30.08 in 10.0 mi NNW 6.9 mph - N/A   Clear
10:15 AM 86.0 °F 88.2 °F 65.8 °F 51% 30.08 in 10.0 mi NW 4.6 mph - N/A   Clear
10:35 AM 86.2 °F 87.9 °F 64.9 °F 49% 30.08 in 10.0 mi NNW 5.8 mph - N/A   Clear
10:55 AM 87.1 °F 88.0 °F 63.7 °F 45% 30.08 in 10.0 mi SSW 5.8 mph - N/A   Clear
11:15 AM 87.8 °F 89.7 °F 65.5 °F 47% 30.08 in 10.0 mi WSW 5.8 mph - N/A   Scattered Clouds
11:35 AM 89.1 °F 91.3 °F 65.7 °F 46% 30.08 in 10.0 mi Calm Calm - N/A   Mostly Cloudy
11:55 AM 88.9 °F 90.3 °F 64.6 °F 44% 30.07 in 10.0 mi NNW 4.6 mph - N/A   Scattered Clouds
12:15 PM 90.7 °F 92.4 °F 64.6 °F 42% 30.06 in 10.0 mi SW 4.6 mph - N/A   Scattered Clouds
12:35 PM 90.0 °F 91.7 °F 64.9 °F 43% 30.06 in 10.0 mi WNW 6.9 mph - N/A   Mostly Cloudy
12:55 PM 90.5 °F 92.2 °F 64.6 °F 42% 30.06 in 10.0 mi NW 8.1 mph - N/A   Mostly Cloudy
1:15 PM 91.0 °F 93.8 °F 66.2 °F 44% 30.05 in 10.0 mi West 3.5 mph - N/A   Mostly Cloudy
1:35 PM 92.1 °F 94.4 °F 65.5 °F 41% 30.04 in 10.0 mi NNW 4.6 mph - N/A   Scattered Clouds
1:55 PM 90.9 °F 92.7 °F 64.8 °F 42% 30.04 in 10.0 mi Calm Calm - N/A   Scattered Clouds
2:15 PM 92.5 °F 95.0 °F 65.3 °F 41% 30.03 in 10.0 mi NW 5.8 mph - N/A   Mostly Cloudy
2:35 PM 89.6 °F 92.2 °F 66.0 °F 46% 30.03 in 10.0 mi SSW 5.8 mph - N/A   Mostly Cloudy
2:55 PM 85.6 °F 91.5 °F 71.6 °F 63% 30.04 in 10.0 mi SW 12.7 mph 18.4 mph N/A   Overcast
3:15 PM 77.0 °F - 72.0 °F 84% 30.03 in 3.0 mi South 6.9 mph - 0.11 in Rain Rain
3:35 PM 77.5 °F - 73.4 °F 87% 30.03 in 10.0 mi South 5.8 mph - 0.12 in   Overcast
3:55 PM 79.9 °F - 75.2 °F 86% 30.03 in 10.0 mi South 4.6 mph - 0.12 in   Mostly Cloudy
4:15 PM 81.5 °F 88.5 °F 76.1 °F 84% 30.03 in 10.0 mi South 3.5 mph - N/A   Mostly Cloudy
4:35 PM 82.4 °F 90.6 °F 76.6 °F 83% 30.03 in 10.0 mi South 3.5 mph - N/A   Overcast
4:55 PM 85.1 °F 95.4 °F 76.8 °F 76% 30.02 in 10.0 mi South 5.8 mph - N/A   Scattered Clouds
5:15 PM 85.5 °F 93.4 °F 74.3 °F 69% 30.03 in 10.0 mi SSW 8.1 mph - N/A   Scattered Clouds
5:35 PM 83.5 °F 89.7 °F 73.2 °F 71% 30.02 in 10.0 mi SW 6.9 mph - N/A   Scattered Clouds
5:55 PM 83.3 °F 89.0 °F 72.7 °F 70% 30.02 in 10.0 mi SSW 8.1 mph - N/A   Mostly Cloudy
6:15 PM 82.2 °F 87.3 °F 72.5 °F 72% 30.03 in 10.0 mi SW 6.9 mph - N/A   Scattered Clouds
6:35 PM 81.0 °F 86.0 °F 73.4 °F 78% 30.03 in 10.0 mi SSW 4.6 mph - N/A   Clear
6:55 PM 79.7 °F - 73.8 °F 82% 30.04 in 10.0 mi SW 4.6 mph - N/A   Clear
7:15 PM 79.7 °F - 73.6 °F 81% 30.04 in 10.0 mi SW 4.6 mph - N/A   Clear
7:35 PM 79.7 °F - 73.6 °F 81% 30.04 in 10.0 mi SSW 4.6 mph - N/A   Clear
7:55 PM 79.2 °F - 73.8 °F 83% 30.03 in 10.0 mi SW 3.5 mph - N/A   Clear
8:15 PM 78.8 °F - 74.1 °F 85% 30.04 in 10.0 mi SW 3.5 mph - N/A   Clear
8:35 PM 78.1 °F - 73.9 °F 87% 30.04 in 10.0 mi SW 3.5 mph - N/A   Clear
8:55 PM 77.4 °F - 73.8 °F 89% 30.04 in 10.0 mi SW 3.5 mph - N/A   Clear
9:15 PM 76.6 °F - 73.8 °F 91% 30.05 in 10.0 mi SW 3.5 mph - N/A   Clear
9:35 PM 77.0 °F - 73.9 °F 90% 30.05 in 10.0 mi SSW 3.5 mph - N/A   Clear
9:55 PM 77.0 °F - 73.9 °F 90% 30.06 in 10.0 mi Calm Calm - N/A   Clear
10:15 PM 76.5 °F - 73.8 °F 91% 30.05 in 10.0 mi Calm Calm - N/A   Clear
10:35 PM 75.7 °F - 73.6 °F 93% 30.06 in 10.0 mi SW 3.5 mph - N/A   Clear
10:55 PM 75.7 °F - 73.4 °F 92% 30.06 in 10.0 mi SW 3.5 mph - N/A   Clear
11:15 PM 75.7 °F - 73.4 °F 92% 30.05 in 10.0 mi SSW 3.5 mph - N/A   Clear
11:35 PM 76.3 °F - 73.6 °F 91% 30.05 in 10.0 mi SW 4.6 mph - N/A   Clear
11:55 PM 76.1 °F - 73.6 °F 92% 30.05 in 10.0 mi SW 3.5 mph - N/A   Clear